CZ-6A DEB

Satellite information

Favourite Embed

Satellite Type and Status

DEBRISIN ORBIT

Key statistics

Satellite CZ-6A DEB at a glance.

Uptime

494

Days in orbit

Revolutions

≈ 14.2

Per day

Orbit

LEO

Low Earth Orbit

Inclination

89.2

Latest

Satellite identification and parameters

Extended collection of information and parameters for CZ-6A DEB.

Object identification

Identified? True

Debris? True

Object name: CZ-6A DEB

International designator: 2024-140SC

Object number (NORAD): 61267

Object ID (CCSDS): 61267

Country: PEOPLES REPUBLIC OF CHINA (PRC)

Current information (Y/N): Y

RCS size: SMALL

Orbital parameters

Period: 101.135 minutes

Inclination: 89.1551 deg

SMA: 7190.538 km

Apoapsis: 851.29 km

Periapsis: 773.516 km

RAAN: 304.5722 deg

Eccentricy: 0.0054081

Argument of periapsis: 109.1515 deg

Mean anomaly: 251.5543 deg

Mean motion: 14.23838249 rev/day

Mean motion (dot): 0.00003394 rev/day2

B* drag term: 0.0014555 1/REarth

Two-line elements (TLE)

Creation date: Dec. 12, 2025, 7:16 a.m.

Reference frame: TEME

Reference center: EARTH

Epoch: Dec. 11, 2025, 9:34 p.m. UTC

TLE line 0: 0 CZ-6A DEB

TLE line 1: 1 61267U 24140SC 25345.89866709 .00003394 00000-0 14555-2 0 9996

TLE line 2: 2 61267 89.1551 304.5722 0054081 109.1515 251.5543 14.23838249 67200

Live tracking on map

Real-time ground track for satellite CZ-6A DEB.

In-orbit conjunctions

A list of the most updated potential collisions computed for object CZ-6A DEB.

Target Orbit TCA Probability of collision Miss distance Type
SL-16 R/B LEO 2025-11-09 20:20:58 0.0001608826 476.0 (m) ROCKET BODY
DELTA 1 DEB SSO 2025-11-08 02:02:31 0.000156799 188.0 (m) DEBRIS
FENGYUN 1C DEB SSO 2025-07-01 00:20:46 0.000210004 107.0 (m) DEBRIS
CZ-6A DEB LEO 2025-02-04 05:36:12 0.0001805396 895.0 (m) DEBRIS
CZ-4 DEB SSO 2024-12-16 04:30:17 0.0004064329 175.0 (m) DEBRIS

Associated space launch

18 Low Earth Orbit communication satellites with Ku, Q and V band payloads for the G60 constellation operated by Shanghai Spacecom Satellite Technology (SSST) with funding backed by the Shanghai local government. Initial constellation will consist of 1296 satellites by 2027 with long term plans to expand it to 12000 satellites.

CZ-6A DEB was lifted into orbit during the mission ‘Long March 6A | G60 Polar Group 01’, on board a Long March 6A space rocket.

The launch took place on Aug. 6, 2024, 6:42 a.m. from Launch Complex 9A.

For more information about the launch, click the button.

Launch to space Long March 6A | G60 Polar Group 01
Long March 6A | G60 Polar Group 01

Agency: N/A

Status: Launch Successful

Launch date: Aug. 6, 2024, 6:42 a.m. UTC

Rocket: Long March 6A

Launch pad: Launch Complex 9A

Location: Taiyuan Satellite Launch Center, People's Republic of China

...

Latest news about this satellite

News about space launch
Brightness of first Chinese broadband constellation satellites alarms astronomers

The first satellites of a Chinese broadband constellation are significantly brighter than those of Western systems, posing a new challenge for astronomers.

News about space launch
Chinese rocket stage breaks up into cloud of more than 700 pieces of space debris

HELSINKI — A Chinese Long March 6A rocket’s upper stage has fragmented into a cloud of over 700 pieces of space debris, adding to concerns about long-term orbital safety. China […]

News about space launch
China's Thousand Sails Megaconstellation Kicks Off with Dangerous Debris Field

China's Thousand Sails Megaconstellation Kicks Off with Dangerous Debris Field


Newsletter sign-up

Weekly statistics, charts and insights to help you stay on top of the space industry.